VR2HK-13 Weather Reports


Display with metric or nautical units.
time (UTC)temp
F
wind
direction
speed
MPH
gust
MPH
rain 1hr
in
rain 24hr
in
rain mn
in
humidity
%
barometer
mb
20260905104029 84 272 2.0 8.0 0.00 0.00 0.00 78 1006.8
20260905103820 84 227 4.0 8.0 0.00 0.00 0.00 77 1006.8
20260905103529 85 319 3.0 8.0 0.00 0.00 0.00 77 1006.8
20260905103310 85 285 4.0 8.0 0.00 0.00 0.00 77 1006.8
20260905103028 85 245 3.0 7.0 0.00 0.00 0.00 77 1006.7
20260905102800 85 219 5.0 14.0 0.00 0.00 0.00 76 1006.7
20260905102529 85 225 6.0 14.0 0.00 0.00 0.00 76 1006.7
20260905102250 85 316 3.0 5.0 0.00 0.00 0.00 76 1006.6
20260905102029 85 67 1.0 5.0 0.00 0.00 0.00 76 1006.6
20260905101528 85 334 1.0 10.0 0.00 0.00 0.00 76 1006.6
20260905101230 85 341 2.0 13.0 0.00 0.00 0.00 76 1006.6
20260905101029 85 69 6.0 13.0 0.00 0.00 0.00 76 1006.5
20260905100720 86 275 3.0 7.0 0.00 0.00 0.00 76 1006.5
20260905100529 86 67 2.0 7.0 0.00 0.00 0.00 76 1006.5
20260905100211 86 229 1.0 6.0 0.00 0.00 0.00 75 1006.4
20260905100028 86 70 2.0 10.0 0.00 0.00 0.00 75 1006.5
20260905095700 86 220 6.0 10.0 0.00 0.00 0.00 75 1006.4
20260905095528 86 224 3.0 7.0 0.00 0.00 0.00 75 1006.4
20260905095029 87 11 3.0 9.0 0.00 0.00 0.00 74 1006.4
20260905094529 88 243 4.0 7.0 0.00 0.00 0.00 73 1006.4
20260905094130 89 279 1.0 4.0 0.00 0.00 0.00 73 1006.3
20260905094028 89 357 2.0 12.0 0.00 0.00 0.00 73 1006.3
20260905093529 89 267 2.0 6.0 0.00 0.00 0.00 72 1006.3
20260905093110 89 199 2.0 10.0 0.00 0.00 0.00 71 1006.2
20260905093029 89 20 4.0 10.0 0.00 0.00 0.00 71 1006.2
20260905092050 90 262 4.0 10.0 0.00 0.00 0.00 70 1006.2
20260905092028 90 269 4.0 10.0 0.00 0.00 0.00 70 1006.2
20260905091540 91 334 3.0 6.0 0.00 0.00 0.00 70 1006.1
20260905091528 91 311 2.0 6.0 0.00 0.00 0.00 70 1006.1
20260905091030 90 19 3.0 9.0 0.00 0.00 0.00 72 1006.0
20260905091028 90 19 3.0 9.0 0.00 0.00 0.00 72 1006.0
20260905090528 89 320 3.0 19.0 0.00 0.00 0.00 71 1006.0
20260905090519 89 311 2.0 19.0 0.00 0.00 0.00 71 1006.0
20260905090028 91 38 3.0 10.0 0.00 0.00 0.00 69 1006.0
20260905090009 91 28 3.0 10.0 0.00 0.00 0.00 69 1005.9
20260905085528 92 268 3.0 8.0 0.00 0.00 0.00 68 1005.9
20260905085500 92 322 3.0 8.0 0.00 0.00 0.00 68 1005.9
20260905085029 92 261 6.0 9.0 0.00 0.00 0.00 67 1005.9
20260905084950 92 230 4.0 9.0 0.00 0.00 0.00 67 1005.9
20260905084529 91 353 3.0 10.0 0.00 0.00 0.00 68 1005.9
20260905084439 91 3 1.0 10.0 0.00 0.00 0.00 68 1005.9
20260905084028 90 245 2.0 11.0 0.00 0.00 0.00 70 1005.9
20260905083929 90 284 4.0 11.0 0.00 0.00 0.00 70 1005.9
20260905083528 90 62 4.0 16.0 0.00 0.00 0.00 69 1005.9
20260905083028 91 356 5.0 9.0 0.00 0.00 0.00 68 1005.9
20260905082528 91 215 2.0 14.0 0.00 0.00 0.00 68 1005.9
20260905082359 91 299 7.0 14.0 0.00 0.00 0.00 67 1005.9
20260905082028 92 8 3.0 9.0 0.00 0.00 0.00 68 1005.8
20260905081526 91 290 1.0 9.0 0.00 0.00 0.00 68 1005.9
20260905081028 92 36 1.0 10.0 0.00 0.00 0.00 66 1005.8
20260905080829 93 269 2.0 10.0 0.00 0.00 0.00 67 1005.8
20260905080528 93 242 3.0 6.0 0.00 0.00 0.00 67 1005.7
20260905080320 93 329 2.0 6.0 0.00 0.00 0.00 67 1005.7
20260905080027 93 250 2.0 6.0 0.00 0.00 0.00 68 1005.7
20260905075809 92 258 3.0 15.0 0.00 0.00 0.00 69 1005.7
20260905075528 91 293 4.0 15.0 0.00 0.00 0.00 68 1005.7
20260905075259 92 48 3.0 7.0 0.00 0.00 0.00 68 1005.8
20260905075028 92 282 2.0 10.0 0.00 0.00 0.00 69 1005.8
20260905074749 92 327 2.0 10.0 0.00 0.00 0.00 69 1005.8
20260905074527 92 248 3.0 10.0 0.00 0.00 0.00 70 1005.9
20260905074239 91 35 4.0 10.0 0.00 0.00 0.00 70 1005.9
20260905074028 91 244 2.0 9.0 0.00 0.00 0.00 70 1005.9
20260905073728 91 14 5.0 13.0 0.00 0.00 0.00 69 1006.0
20260905073527 92 16 6.0 13.0 0.00 0.00 0.00 68 1006.0
20260905073219 91 277 3.0 11.0 0.00 0.00 0.00 69 1006.0
20260905073027 92 261 5.0 11.0 0.00 0.00 0.00 69 1006.0
20260905072709 91 5 4.0 11.0 0.00 0.00 0.00 69 1006.1
20260905072527 92 44 6.0 11.0 0.00 0.00 0.00 69 1006.1
20260905072159 92 357 4.0 10.0 0.00 0.00 0.00 69 1006.1
20260905072027 92 235 4.0 12.0 0.00 0.00 0.00 69 1006.1
20260905071649 93 224 5.0 12.0 0.00 0.00 0.00 67 1006.1
20260905071528 93 258 4.0 12.0 0.00 0.00 0.00 67 1006.1
20260905071139 93 249 4.0 10.0 0.00 0.00 0.00 67 1006.1
20260905071027 93 269 2.0 10.0 0.00 0.00 0.00 67 1006.1
20260905070629 92 8 2.0 10.0 0.00 0.00 0.00 67 1006.1
20260905070527 92 211 3.0 11.0 0.00 0.00 0.00 67 1006.1
20260905070119 92 138 4.0 12.0 0.00 0.00 0.00 67 1006.1
20260905070027 92 248 4.0 12.0 0.00 0.00 0.00 67 1006.2
20260905065608 92 295 6.0 11.0 0.00 0.00 0.00 66 1006.1
20260905065527 93 246 6.0 11.0 0.00 0.00 0.00 66 1006.1
20260905065027 92 284 4.0 14.0 0.00 0.00 0.00 66 1006.1
20260905064548 93 236 5.0 11.0 0.00 0.00 0.00 66 1006.2
20260905064527 93 251 4.0 11.0 0.00 0.00 0.00 66 1006.2
20260905064039 94 209 6.0 11.0 0.00 0.00 0.00 64 1006.2
20260905064027 94 197 6.0 11.0 0.00 0.00 0.00 64 1006.2
20260905063529 94 290 3.0 7.0 0.00 0.00 0.00 65 1006.2
20260905063527 94 287 3.0 7.0 0.00 0.00 0.00 65 1006.2
20260905063027 92 15 4.0 12.0 0.00 0.00 0.00 67 1006.3
20260905063018 92 192 4.0 12.0 0.00 0.00 0.00 67 1006.3
20260905062527 90 209 5.0 11.0 0.00 0.00 0.00 68 1006.4
20260905062508 90 298 6.0 11.0 0.00 0.00 0.00 68 1006.3
20260905062027 89 239 6.0 17.0 0.00 0.00 0.00 69 1006.4
20260905061958 89 247 6.0 17.0 0.00 0.00 0.00 69 1006.4
20260905061526 89 238 8.0 18.0 0.00 0.00 0.00 68 1006.3
20260905061448 89 209 9.0 18.0 0.00 0.00 0.00 67 1006.4
20260905061027 90 209 9.0 14.0 0.00 0.00 0.00 69 1006.3
20260905060938 90 258 5.0 14.0 0.00 0.00 0.00 70 1006.3
20260905060527 89 222 8.0 12.0 0.00 0.00 0.00 69 1006.4
20260905060429 89 254 6.0 15.0 0.00 0.00 0.00 70 1006.3
20260905060026 88 236 7.0 17.0 0.00 0.00 0.00 71 1006.4
20260905055918 88 264 9.0 20.0 0.00 0.00 0.00 71 1006.3
20260905055527 88 230 12.0 20.0 0.00 0.00 0.00 70 1006.3
20260905055408 88 261 11.0 16.0 0.00 0.00 0.00 70 1006.3
20260905055026 88 274 7.0 14.0 0.00 0.00 0.00 70 1006.4
20260905054858 88 207 8.0 16.0 0.00 0.00 0.00 70 1006.4
20260905054527 88 225 9.0 19.0 0.00 0.00 0.00 70 1006.4
20260905054027 88 226 7.0 18.0 0.00 0.00 0.00 70 1006.5
20260905053527 90 225 7.0 13.0 0.00 0.00 0.00 69 1006.5
20260905053328 90 219 5.0 13.0 0.00 0.00 0.00 70 1006.6
20260905053027 89 226 8.0 13.0 0.00 0.00 0.00 69 1006.6
20260905052817 89 260 6.0 15.0 0.00 0.00 0.00 70 1006.6
20260905052526 89 251 5.0 15.0 0.00 0.00 0.00 69 1006.6
20260905052027 89 231 8.0 14.0 0.00 0.00 0.00 69 1006.6
20260905051757 89 266 7.0 13.0 0.00 0.00 0.00 70 1006.7
20260905051526 89 259 6.0 19.0 0.00 0.00 0.00 71 1006.7
20260905051248 88 262 6.0 19.0 0.00 0.00 0.00 71 1006.8
20260905051026 89 240 10.0 18.0 0.00 0.00 0.00 70 1006.7
20260905050737 90 266 8.0 13.0 0.00 0.00 0.00 70 1006.8
20260905050526 90 251 6.0 13.0 0.00 0.00 0.00 69 1006.8
20260905050227 90 249 6.0 12.0 0.00 0.00 0.00 68 1006.9
20260905050026 91 274 5.0 12.0 0.00 0.00 0.00 68 1006.9
20260905045718 91 253 8.0 15.0 0.00 0.00 0.00 69 1007.0
20260905045527 91 281 6.0 15.0 0.00 0.00 0.00 69 1007.1
20260905045026 90 242 7.0 12.0 0.00 0.00 0.00 69 1007.1
20260905044657 89 268 6.0 14.0 0.00 0.00 0.00 71 1007.2
20260905044526 88 28 6.0 14.0 0.00 0.00 0.00 72 1007.1
20260905044147 87 256 6.0 18.0 0.00 0.00 0.00 72 1007.2
20260905044026 87 186 9.0 21.0 0.00 0.00 0.00 72 1007.2
20260905043637 87 200 11.0 21.0 0.00 0.00 0.00 72 1007.2
20260905043526 87 213 6.0 16.0 0.00 0.00 0.00 73 1007.2
20260905043128 87 220 7.0 16.0 0.00 0.00 0.00 73 1007.2
20260905043026 87 239 7.0 19.0 0.00 0.00 0.00 72 1007.3
20260905042617 87 246 8.0 18.0 0.00 0.00 0.00 72 1007.4
20260905042526 87 196 7.0 18.0 0.00 0.00 0.00 72 1007.3
20260905042107 88 243 11.0 16.0 0.00 0.00 0.00 71 1007.4
20260905042026 88 214 9.0 16.0 0.00 0.00 0.00 71 1007.4
20260905041557 87 224 8.0 18.0 0.00 0.00 0.00 71 1007.4
20260905041526 87 225 8.0 18.0 0.00 0.00 0.00 71 1007.4
20260905041047 88 245 8.0 17.0 0.00 0.00 0.00 70 1007.4
20260905041026 88 190 8.0 17.0 0.00 0.00 0.00 70 1007.3
20260905040536 88 232 10.0 15.0 0.00 0.00 0.00 70 1007.3
20260905040525 88 248 9.0 15.0 0.00 0.00 0.00 70 1007.4
20260905040028 88 212 6.0 15.0 0.00 0.00 0.00 71 1007.4
20260905040026 88 181 6.0 15.0 0.00 0.00 0.00 71 1007.4
20260905035525 87 211 9.0 17.0 0.00 0.00 0.00 71 1007.5
20260905035517 87 231 8.0 17.0 0.00 0.00 0.00 71 1007.4
20260905035026 87 115 9.0 18.0 0.00 0.00 0.00 71 1007.5
20260905035007 87 257 7.0 18.0 0.00 0.00 0.00 71 1007.5
20260905034526 87 207 6.0 15.0 0.00 0.00 0.00 72 1007.6
20260905034457 87 225 5.0 15.0 0.00 0.00 0.00 72 1007.6
20260905034025 87 272 7.0 15.0 0.00 0.00 0.00 72 1007.6
20260905033947 87 156 7.0 15.0 0.00 0.00 0.00 71 1007.6
20260905033526 87 313 5.0 15.0 0.00 0.00 0.00 72 1007.6
20260905033437 87 277 7.0 15.0 0.00 0.00 0.00 72 1007.6
20260905033025 87 227 8.0 15.0 0.00 0.00 0.00 72 1007.6
20260905032928 87 265 7.0 15.0 0.00 0.00 0.00 72 1007.6
20260905032526 87 264 6.0 14.0 0.00 0.00 0.00 72 1007.6
20260905032417 87 235 7.0 14.0 0.00 0.00 0.00 72 1007.7
20260905032025 87 295 5.0 15.0 0.00 0.00 0.00 71 1007.7
20260905031907 87 197 6.0 14.0 0.00 0.00 0.00 71 1007.7
20260905031526 87 216 7.0 12.0 0.00 0.00 0.00 71 1007.8
20260905031357 87 216 3.0 11.0 0.00 0.00 0.00 72 1007.8
20260905031025 87 300 4.0 17.0 0.00 0.00 0.00 72 1007.8
20260905030846 86 235 6.0 18.0 0.00 0.00 0.00 72 1007.8
20260905030525 86 280 10.0 18.0 0.00 0.00 0.00 72 1007.8
20260905030337 87 205 9.0 15.0 0.00 0.00 0.00 72 1007.8
20260905030026 87 252 7.0 15.0 0.00 0.00 0.00 71 1007.8
20260905025826 87 250 6.0 11.0 0.00 0.00 0.00 72 1007.7
20260905025525 87 38 4.0 11.0 0.00 0.00 0.00 74 1007.8
20260905025317 86 230 7.0 11.0 0.00 0.00 0.00 74 1007.7
20260905025025 86 246 6.0 15.0 0.00 0.00 0.00 75 1007.7
20260905024807 85 279 9.0 15.0 0.00 0.00 0.00 76 1007.7
20260905024525 85 250 7.0 14.0 0.00 0.00 0.00 76 1007.7
20260905024256 85 282 5.0 12.0 0.00 0.00 0.00 75 1007.8
20260905024025 85 162 7.0 12.0 0.00 0.00 0.00 75 1007.8
20260905023747 85 185 6.0 14.0 0.00 0.00 0.00 75 1007.7
20260905023526 85 237 6.0 14.0 0.00 0.00 0.00 76 1007.8
20260905023236 85 251 2.0 13.0 0.00 0.00 0.00 76 1007.7
20260905023025 85 216 9.0 13.0 0.00 0.00 0.00 76 1007.7
20260905022726 85 234 3.0 13.0 0.00 0.00 0.00 75 1007.8
20260905022525 85 176 5.0 13.0 0.00 0.00 0.00 75 1007.7
20260905022217 85 192 4.0 16.0 0.00 0.00 0.00 75 1007.7
20260905022024 86 207 10.0 16.0 0.00 0.00 0.00 74 1007.7
20260905021525 85 235 6.0 12.0 0.00 0.00 0.00 76 1007.7
20260905021157 85 268 6.0 12.0 0.00 0.00 0.00 77 1007.6
20260905021025 85 173 4.0 11.0 0.00 0.00 0.00 77 1007.6
20260905020646 85 248 7.0 11.0 0.00 0.00 0.00 76 1007.7
20260905020525 85 106 5.0 10.0 0.00 0.00 0.00 76 1007.6
20260905020136 85 233 6.0 16.0 0.00 0.00 0.00 76 1007.6
20260905020025 85 249 8.0 16.0 0.00 0.00 0.00 76 1007.6
20260905015627 85 155 3.0 10.0 0.00 0.00 0.00 76 1007.7
20260905015524 85 201 5.0 10.0 0.00 0.00 0.00 76 1007.7
20260905015116 84 180 5.0 13.0 0.00 0.00 0.00 76 1007.7
20260905015025 84 184 5.0 13.0 0.00 0.00 0.00 76 1007.7
20260905014606 84 226 7.0 13.0 0.00 0.00 0.00 76 1007.7
20260905014525 84 258 6.0 13.0 0.00 0.00 0.00 76 1007.7
20260905014056 84 208 6.0 14.0 0.00 0.00 0.00 76 1007.8
20260905014024 84 168 5.0 14.0 0.00 0.00 0.00 76 1007.8
20260905013546 84 212 5.0 11.0 0.00 0.00 0.00 76 1007.8
20260905013525 84 279 6.0 11.0 0.00 0.00 0.00 76 1007.8
20260905013035 84 141 5.0 12.0 0.00 0.00 0.00 75 1007.8
20260905013025 84 98 4.0 12.0 0.00 0.00 0.00 75 1007.8
20260905012527 84 180 3.0 13.0 0.00 0.00 0.00 74 1007.7
20260905012025 85 216 3.0 9.0 0.00 0.00 0.00 72 1007.7
20260905012016 85 222 3.0 9.0 0.00 0.00 0.00 72 1007.8
20260905011524 86 54 4.0 9.0 0.00 0.00 0.00 71 1007.7
20260905011506 86 36 4.0 12.0 0.00 0.00 0.00 71 1007.7
20260905011025 87 216 6.0 12.0 0.00 0.00 0.00 69 1007.6
20260905010956 87 202 6.0 12.0 0.00 0.00 0.00 69 1007.7
20260905010524 88 307 4.0 14.0 0.00 0.00 0.00 69 1007.6
20260905010446 88 20 7.0 14.0 0.00 0.00 0.00 68 1007.7
20260905010025 89 25 5.0 11.0 0.00 0.00 0.00 69 1007.6
20260905005936 89 162 3.0 11.0 0.00 0.00 0.00 69 1007.6
20260905005525 87 35 1.0 9.0 0.00 0.00 0.00 71 1007.5
20260905005426 87 29 2.0 9.0 0.00 0.00 0.00 71 1007.5
20260905005025 86 252 4.0 10.0 0.00 0.00 0.00 71 1007.5
20260905004916 86 210 7.0 10.0 0.00 0.00 0.00 71 1007.5
20260905004524 86 236 4.0 11.0 0.00 0.00 0.00 71 1007.4
20260905004406 87 197 7.0 11.0 0.00 0.00 0.00 70 1007.4
20260905004024 88 175 1.0 11.0 0.00 0.00 0.00 70 1007.4
20260905003856 88 25 5.0 11.0 0.00 0.00 0.00 69 1007.4
20260905003524 89 9 2.0 8.0 0.00 0.00 0.00 70 1007.3
20260905003346 89 251 4.0 8.0 0.00 0.00 0.00 70 1007.3
20260905003024 88 253 1.0 4.0 0.00 0.00 0.00 70 1007.3
20260905002835 88 28 2.0 4.0 0.00 0.00 0.00 71 1007.3
20260905002524 87 24 2.0 4.0 0.00 0.00 0.00 71 1007.3
20260905002325 87 108 1.0 4.0 0.00 0.00 0.00 72 1007.3
20260905002024 86 71 2.0 6.0 0.00 0.00 0.00 72 1007.3
20260905001815 86 87 3.0 6.0 0.00 0.00 0.00 72 1007.2
20260905001524 86 53 3.0 6.0 0.00 0.00 0.00 72 1007.2
20260905001306 86 33 1.0 6.0 0.00 0.00 0.00 72 1007.2
20260905001024 86 20 4.0 9.0 0.00 0.00 0.00 72 1007.2
20260905000756 85 69 5.0 9.0 0.00 0.00 0.00 73 1007.3
20260905000524 85 19 5.0 9.0 0.00 0.00 0.00 73 1007.2
20260905000245 85 58 5.0 9.0 0.00 0.00 0.00 73 1007.2
20260905000024 85 26 5.0 7.0 0.00 0.00 0.00 75 1007.2
20260904235735 84 28 1.0 4.0 0.00 0.00 0.00 77 1007.1
20260904235524 83 208 1.0 6.0 0.00 0.00 0.00 77 1007.1
20260904235225 82 28 2.0 6.0 0.00 0.00 0.00 78 1007.1
20260904235024 82 24 1.0 4.0 0.00 0.00 0.00 79 1007.1
20260904234715 82 183 2.0 4.0 0.00 0.00 0.00 79 1007.0
20260904234524 82 199 2.0 4.0 0.00 0.00 0.00 80 1007.0
20260904234205 82 209 2.0 5.0 0.00 0.00 0.00 80 1007.0
20260904234023 82 191 3.0 5.0 0.00 0.00 0.00 80 1007.0
20260904233655 82 209 2.0 5.0 0.00 0.00 0.00 81 1006.9
20260904233524 81 197 3.0 5.0 0.00 0.00 0.00 81 1006.9
20260904233145 81 169 3.0 5.0 0.00 0.00 0.00 81 1006.8
20260904233023 81 166 3.0 5.0 0.00 0.00 0.00 82 1006.8
20260904232635 81 220 3.0 4.0 0.00 0.00 0.00 82 1006.8
20260904232523 81 258 2.0 4.0 0.00 0.00 0.00 82 1006.8
20260904232125 81 213 2.0 6.0 0.00 0.00 0.00 82 1006.7
20260904232024 81 212 2.0 6.0 0.00 0.00 0.00 82 1006.7
20260904231615 81 163 2.0 6.0 0.00 0.00 0.00 81 1006.6
20260904231523 81 233 2.0 6.0 0.00 0.00 0.00 81 1006.6
20260904231024 81 192 3.0 5.0 0.00 0.00 0.00 81 1006.6
20260904230555 81 196 2.0 6.0 0.00 0.00 0.00 81 1006.6
20260904230523 81 201 2.0 6.0 0.00 0.00 0.00 81 1006.5
20260904230045 81 203 3.0 5.0 0.00 0.00 0.00 81 1006.5
20260904230023 81 213 3.0 5.0 0.00 0.00 0.00 81 1006.5
20260904225535 81 200 2.0 4.0 0.00 0.00 0.00 81 1006.5
20260904225524 81 219 2.0 4.0 0.00 0.00 0.00 81 1006.6
20260904225025 81 165 2.0 4.0 0.00 0.00 0.00 81 1006.6
20260904225023 81 171 2.0 4.0 0.00 0.00 0.00 81 1006.6
20260904224523 81 169 3.0 4.0 0.00 0.00 0.00 81 1006.6
20260904224515 81 180 3.0 4.0 0.00 0.00 0.00 81 1006.6
20260904224023 81 187 2.0 4.0 0.00 0.00 0.00 81 1006.5
20260904224004 81 199 2.0 3.0 0.00 0.00 0.00 81 1006.5
20260904223524 81 224 1.0 3.0 0.00 0.00 0.00 80 1006.4
20260904223455 81 170 1.0 3.0 0.00 0.00 0.00 80 1006.3
20260904223024 81 217 2.0 2.0 0.00 0.00 0.00 80 1006.3
20260904222523 81 251 1.0 2.0 0.00 0.00 0.00 80 1006.3
20260904222435 81 230 1.0 2.0 0.00 0.00 0.00 80 1006.2
20260904222023 81 253 1.0 3.0 0.00 0.00 0.00 81 1006.2
20260904221924 81 231 1.0 3.0 0.00 0.00 0.00 80 1006.1
20260904221523 81 219 1.0 2.0 0.00 0.00 0.00 81 1006.1
20260904221414 81 205 1.0 2.0 0.00 0.00 0.00 81 1006.2
20260904221023 81 216 1.0 2.0 0.00 0.00 0.00 81 1006.2
20260904220905 81 225 1.0 2.0 0.00 0.00 0.00 81 1006.1
20260904220523 81 200 1.0 2.0 0.00 0.00 0.00 81 1006.1
20260904220354 81 222 1.0 2.0 0.00 0.00 0.00 81 1006.1
20260904220023 81 211 2.0 2.0 0.00 0.00 0.00 81 1006.1
20260904215844 81 208 1.0 1.0 0.00 0.00 0.00 81 1006.1
20260904215523 81 196 1.0 2.0 0.00 0.00 0.00 81 1006.1
20260904215334 81 196 1.0 3.0 0.00 0.00 0.00 81 1006.1
20260904215023 81 190 1.0 3.0 0.00 0.00 0.00 81 1006.0
20260904214824 81 236 1.0 3.0 0.00 0.00 0.00 81 1006.0
20260904214523 81 238 1.0 4.0 0.00 0.00 0.00 81 1006.0
20260904214315 81 219 2.0 4.0 0.00 0.00 0.00 81 1006.0
20260904214023 81 191 2.0 4.0 0.00 0.00 0.00 81 1006.1
20260904213804 81 216 1.0 3.0 0.00 0.00 0.00 81 1006.0
20260904213523 81 231 1.0 2.0 0.00 0.00 0.00 81 1006.0
20260904213254 81 222 1.0 2.0 0.00 0.00 0.00 81 1006.0
20260904213022 81 222 1.0 3.0 0.00 0.00 0.00 81 1006.0
20260904212744 81 217 1.0 3.0 0.00 0.00 0.00 81 1006.0
20260904212523 81 221 1.0 2.0 0.00 0.00 0.00 81 1006.0
20260904212234 81 215 1.0 2.0 0.00 0.00 0.00 81 1006.0
20260904211724 81 218 2.0 3.0 0.00 0.00 0.00 80 1006.0
20260904211523 81 232 1.0 3.0 0.00 0.00 0.00 80 1006.0
20260904211214 81 203 1.0 2.0 0.00 0.00 0.00 80 1006.0
20260904211022 81 208 1.0 2.0 0.00 0.00 0.00 80 1006.0
20260904210704 81 210 1.0 2.0 0.00 0.00 0.00 80 1005.9
20260904210523 81 249 1.0 2.0 0.00 0.00 0.00 80 1005.9
20260904210153 81 212 1.0 3.0 0.00 0.00 0.00 80 1006.0
20260904210022 81 220 1.0 3.0 0.00 0.00 0.00 80 1006.0
20260904205644 81 196 2.0 3.0 0.00 0.00 0.00 80 1006.0
20260904205523 81 235 1.0 3.0 0.00 0.00 0.00 80 1006.0
20260904205134 81 184 1.0 3.0 0.00 0.00 0.00 81 1006.0
20260904205022 81 192 1.0 2.0 0.00 0.00 0.00 81 1006.1
20260904204624 81 180 1.0 3.0 0.00 0.00 0.00 80 1006.0
20260904204522 81 198 1.0 3.0 0.00 0.00 0.00 80 1006.0
20260904204114 81 206 2.0 4.0 0.00 0.00 0.00 80 1006.0
20260904204022 81 168 3.0 4.0 0.00 0.00 0.00 80 1006.0
20260904203604 81 196 3.0 4.0 0.00 0.00 0.00 79 1006.0
20260904203522 81 220 2.0 4.0 0.00 0.00 0.00 79 1006.0
20260904203054 81 242 1.0 2.0 0.00 0.00 0.00 78 1006.0
20260904203023 81 272 1.0 2.0 0.00 0.00 0.00 78 1005.9
20260904202543 81 208 1.0 2.0 0.00 0.00 0.00 78 1005.9
20260904202522 81 242 1.0 2.0 0.00 0.00 0.00 78 1005.9
20260904202034 81 203 1.0 2.0 0.00 0.00 0.00 78 1005.9
20260904202023 81 200 1.0 2.0 0.00 0.00 0.00 78 1005.9
20260904201522 81 208 1.0 2.0 0.00 0.00 0.00 78 1005.9
20260904201022 81 271 0.0 1.0 0.00 0.00 0.00 78 1005.9
20260904201014 81 255 0.0 1.0 0.00 0.00 0.00 78 1005.9
20260904200522 81 259 0.0 1.0 0.00 0.00 0.00 78 1005.9
20260904200022 81 259 1.0 3.0 0.00 0.00 0.00 78 1005.9
20260904195954 81 281 1.0 3.0 0.00 0.00 0.00 78 1005.9
20260904195522 81 182 1.0 4.0 0.00 0.00 0.00 78 1005.9
20260904195022 81 226 2.0 4.0 0.00 0.00 0.00 77 1005.8
20260904194933 81 162 3.0 4.0 0.00 0.00 0.00 77 1005.8
20260904194522 81 234 2.0 3.0 0.00 0.00 0.00 77 1005.8
20260904194424 81 242 2.0 3.0 0.00 0.00 0.00 77 1005.9
20260904194022 81 207 2.0 6.0 0.00 0.00 0.00 77 1005.8
20260904193913 81 202 3.0 6.0 0.00 0.00 0.00 77 1005.8
20260904193522 81 207 2.0 8.0 0.00 0.00 0.00 77 1005.8
20260904193404 81 236 4.0 8.0 0.00 0.00 0.00 77 1005.8
20260904193021 81 180 4.0 7.0 0.00 0.00 0.00 77 1005.8
20260904192853 81 216 4.0 7.0 0.00 0.00 0.00 77 1005.8
20260904192522 81 204 4.0 8.0 0.00 0.00 0.00 77 1005.7
20260904192343 81 193 4.0 8.0 0.00 0.00 0.00 77 1005.8
20260904192022 81 195 3.0 6.0 0.00 0.00 0.00 77 1005.8
20260904191832 81 175 4.0 7.0 0.00 0.00 0.00 77 1005.7
20260904191521 81 219 5.0 7.0 0.00 0.00 0.00 77 1005.7
20260904191323 81 184 3.0 5.0 0.00 0.00 0.00 78 1005.7
20260904191022 81 215 3.0 6.0 0.00 0.00 0.00 78 1005.7
20260904190813 81 272 3.0 6.0 0.00 0.00 0.00 78 1005.7
20260904190522 82 216 2.0 5.0 0.00 0.00 0.00 78 1005.7
20260904190303 82 200 4.0 6.0 0.00 0.00 0.00 77 1005.7
20260904190021 81 191 2.0 6.0 0.00 0.00 0.00 77 1005.7
20260904185753 81 206 4.0 7.0 0.00 0.00 0.00 77 1005.7
20260904185522 81 191 5.0 7.0 0.00 0.00 0.00 77 1005.6
20260904185243 81 161 2.0 4.0 0.00 0.00 0.00 77 1005.7
20260904185021 81 173 1.0 4.0 0.00 0.00 0.00 78 1005.6
20260904184733 81 196 3.0 7.0 0.00 0.00 0.00 78 1005.5
20260904184521 81 195 5.0 7.0 0.00 0.00 0.00 78 1005.5
20260904184223 81 199 4.0 7.0 0.00 0.00 0.00 79 1005.6
20260904184022 81 219 2.0 5.0 0.00 0.00 0.00 80 1005.5
20260904183713 81 269 3.0 5.0 0.00 0.00 0.00 80 1005.5
20260904183521 81 209 3.0 5.0 0.00 0.00 0.00 80 1005.5
20260904183203 81 213 3.0 5.0 0.00 0.00 0.00 80 1005.6
20260904183022 82 216 0.0 5.0 0.00 0.00 0.00 80 1005.5
20260904182652 82 228 2.0 5.0 0.00 0.00 0.00 80 1005.6
20260904182521 82 211 3.0 5.0 0.00 0.00 0.00 80 1005.6
20260904182143 82 246 4.0 5.0 0.00 0.00 0.00 79 1005.6
20260904182021 82 243 3.0 5.0 0.00 0.00 0.00 79 1005.5
20260904181632 82 219 3.0 4.0 0.00 0.00 0.00 79 1005.5
20260904181521 82 280 1.0 3.0 0.00 0.00 0.00 79 1005.6
20260904181123 82 268 1.0 3.0 0.00 0.00 0.00 79 1005.6
20260904181021 82 220 2.0 3.0 0.00 0.00 0.00 79 1005.6
20260904180612 82 187 2.0 3.0 0.00 0.00 0.00 78 1005.6
20260904180521 82 200 1.0 3.0 0.00 0.00 0.00 78 1005.6
20260904180021 82 208 1.0 3.0 0.00 0.00 0.00 78 1005.5
20260904175552 82 140 1.0 4.0 0.00 0.00 0.00 77 1005.6
20260904175521 82 172 1.0 4.0 0.00 0.00 0.00 77 1005.6
20260904175042 82 203 1.0 3.0 0.00 0.00 0.00 77 1005.7
20260904175021 82 162 1.0 3.0 0.00 0.00 0.00 77 1005.6
20260904174533 82 185 2.0 4.0 0.00 0.00 0.00 77 1005.7
20260904174520 82 194 2.0 4.0 0.00 0.00 0.00 77 1005.7
20260904174023 82 37 1.0 2.0 0.00 0.00 0.00 77 1005.7
20260904174021 82 40 1.0 2.0 0.00 0.00 0.00 77 1005.7
20260904173521 82 140 1.0 1.0 0.00 0.00 0.00 77 1005.8
20260904173513 82 65 1.0 1.0 0.00 0.00 0.00 77 1005.8
20260904173021 82 46 1.0 3.0 0.00 0.00 0.00 77 1005.8
20260904173002 82 45 1.0 3.0 0.00 0.00 0.00 77 1005.8
20260904172521 82 67 1.0 5.0 0.00 0.00 0.00 77 1005.9
20260904172452 82 12 1.0 5.0 0.00 0.00 0.00 77 1005.9
20260904172020 82 235 2.0 5.0 0.00 0.00 0.00 77 1005.8
20260904171942 82 201 2.0 5.0 0.00 0.00 0.00 77 1005.9
20260904171521 82 160 1.0 2.0 0.00 0.00 0.00 77 1005.9
20260904171432 82 180 1.0 2.0 0.00 0.00 0.00 77 1005.9
20260904171020 82 225 1.0 3.0 0.00 0.00 0.00 76 1005.9
20260904170922 82 225 1.0 3.0 0.00 0.00 0.00 76 1006.0
20260904170521 82 269 1.0 3.0 0.00 0.00 0.00 76 1006.1
20260904170412 82 283 1.0 3.0 0.00 0.00 0.00 76 1006.1
20260904170021 82 225 2.0 3.0 0.00 0.00 0.00 76 1006.1
20260904165520 82 60 1.0 3.0 0.00 0.00 0.00 76 1006.1
20260904165352 82 103 1.0 3.0 0.00 0.00 0.00 76 1006.1
20260904165021 82 96 1.0 2.0 0.00 0.00 0.00 76 1006.1
20260904164841 82 357 0.0 1.0 0.00 0.00 0.00 76 1006.1
20260904164520 82 73 0.0 2.0 0.00 0.00 0.00 76 1006.1
20260904164332 82 149 1.0 2.0 0.00 0.00 0.00 76 1006.1
20260904164021 82 261 0.0 1.0 0.00 0.00 0.00 76 1006.1
20260904163821 82 38 0.0 0.0 0.00 0.00 0.00 76 1006.1
20260904163520 82 38 0.0 1.0 0.00 0.00 0.00 76 1006.1
20260904163312 82 34 0.0 1.0 0.00 0.00 0.00 76 1006.1
20260904163020 82 35 1.0 3.0 0.00 0.00 0.00 76 1006.1
20260904162802 82 39 1.0 4.0 0.00 0.00 0.00 76 1006.2
20260904162520 82 50 1.0 4.0 0.00 0.00 0.00 76 1006.2
20260904162252 82 294 1.0 1.0 0.00 0.00 0.00 76 1006.2
20260904162020 82 360 0.0 1.0 0.00 0.00 0.00 76 1006.2
20260904161521 82 317 0.0 0.0 0.00 0.00 0.00 76 1006.2
20260904161231 82 224 0.0 1.0 0.00 0.00 0.00 76 1006.2
20260904161020 82 54 0.0 2.0 0.00 0.00 0.00 77 1006.3
20260904160722 82 215 1.0 2.0 0.00 0.00 0.00 77 1006.2
20260904160520 82 215 1.0 3.0 0.00 0.00 0.00 77 1006.2
20260904160212 82 219 2.0 3.0 0.00 0.00 0.00 77 1006.2
20260904160020 82 195 1.0 3.0 0.00 0.00 0.00 77 1006.2
20260904155701 82 290 0.0 1.0 0.00 0.00 0.00 77 1006.2
20260904155520 82 302 0.0 1.0 0.00 0.00 0.00 77 1006.2
20260904155152 82 263 0.0 2.0 0.00 0.00 0.00 77 1006.2
20260904155020 82 291 0.0 2.0 0.00 0.00 0.00 77 1006.1
20260904154641 82 290 0.0 1.0 0.00 0.00 0.00 77 1006.2
20260904154520 82 224 0.0 1.0 0.00 0.00 0.00 77 1006.2
20260904154131 82 222 0.0 4.0 0.00 0.00 0.00 77 1006.2
20260904154020 82 217 1.0 4.0 0.00 0.00 0.00 77 1006.2
20260904153622 82 236 2.0 3.0 0.00 0.00 0.00 77 1006.3
20260904153111 82 305 1.0 4.0 0.00 0.00 0.00 77 1006.3
20260904153020 82 257 1.0 4.0 0.00 0.00 0.00 77 1006.3
20260904152602 82 271 1.0 3.0 0.00 0.00 0.00 77 1006.4
20260904152520 82 269 1.0 3.0 0.00 0.00 0.00 77 1006.4
20260904152051 82 273 1.0 3.0 0.00 0.00 0.00 77 1006.3
20260904152020 82 243 1.0 4.0 0.00 0.00 0.00 77 1006.3
20260904151541 82 230 2.0 5.0 0.00 0.00 0.00 78 1006.3
20260904151520 82 211 2.0 5.0 0.00 0.00 0.00 77 1006.3
20260904151031 82 150 2.0 7.0 0.00 0.00 0.00 77 1006.3
20260904151020 82 176 2.0 7.0 0.00 0.00 0.00 77 1006.3
20260904150521 82 255 3.0 6.0 0.00 0.00 0.00 77 1006.4
20260904150020 82 228 2.0 4.0 0.00 0.00 0.00 77 1006.4
20260904150011 82 268 2.0 4.0 0.00 0.00 0.00 77 1006.4
20260904145520 82 240 3.0 5.0 0.00 0.00 0.00 77 1006.4
20260904145501 82 227 3.0 5.0 0.00 0.00 0.00 77 1006.5
20260904145020 82 202 3.0 8.0 0.00 0.00 0.00 77 1006.4
20260904144951 82 225 4.0 8.0 0.00 0.00 0.00 77 1006.4
20260904144520 82 183 5.0 11.0 0.00 0.00 0.00 77 1006.5
20260904144441 82 177 5.0 11.0 0.00 0.00 0.00 77 1006.5
20260904144019 82 152 5.0 10.0 0.00 0.00 0.00 77 1006.5
20260904143930 82 166 4.0 6.0 0.00 0.00 0.00 77 1006.5
20260904143519 83 145 4.0 6.0 0.00 0.00 0.00 77 1006.5
20260904143421 83 221 1.0 7.0 0.00 0.00 0.00 77 1006.5
20260904143020 83 139 4.0 7.0 0.00 0.00 0.00 76 1006.5
20260904142911 83 170 2.0 4.0 0.00 0.00 0.00 76 1006.5
20260904142519 83 223 3.0 6.0 0.00 0.00 0.00 76 1006.5
20260904142400 83 194 4.0 6.0 0.00 0.00 0.00 76 1006.5
20260904142020 83 204 2.0 4.0 0.00 0.00 0.00 75 1006.5
20260904141851 83 196 2.0 3.0 0.00 0.00 0.00 75 1006.5
20260904141520 83 206 3.0 4.0 0.00 0.00 0.00 75 1006.4
20260904141340 83 210 3.0 4.0 0.00 0.00 0.00 75 1006.4
20260904141019 83 188 2.0 4.0 0.00 0.00 0.00 75 1006.4
20260904140831 83 228 2.0 3.0 0.00 0.00 0.00 75 1006.4
20260904140519 83 233 2.0 4.0 0.00 0.00 0.00 75 1006.4
20260904140321 83 271 3.0 4.0 0.00 0.00 0.00 75 1006.4
20260904140020 83 277 2.0 3.0 0.00 0.00 0.00 75 1006.3
20260904135810 83 289 1.0 2.0 0.00 0.00 0.00 75 1006.3
20260904135519 83 225 1.0 4.0 0.00 0.00 0.00 75 1006.3
20260904135019 83 234 2.0 5.0 0.00 0.00 0.00 75 1006.3
20260904134751 83 269 1.0 2.0 0.00 0.00 0.00 75 1006.3
20260904134519 83 270 1.0 2.0 0.00 0.00 0.00 75 1006.3
20260904134240 83 262 1.0 2.0 0.00 0.00 0.00 75 1006.3
20260904134019 83 294 1.0 3.0 0.00 0.00 0.00 75 1006.3
20260904133730 83 263 1.0 3.0 0.00 0.00 0.00 75 1006.2
20260904133519 83 295 0.0 2.0 0.00 0.00 0.00 75 1006.3
20260904133221 83 218 0.0 3.0 0.00 0.00 0.00 75 1006.2
20260904133019 83 196 1.0 3.0 0.00 0.00 0.00 75 1006.3
20260904132710 83 187 2.0 4.0 0.00 0.00 0.00 75 1006.4
20260904132519 83 226 2.0 4.0 0.00 0.00 0.00 75 1006.3
20260904132200 83 243 1.0 4.0 0.00 0.00 0.00 75 1006.3
20260904132019 83 208 2.0 4.0 0.00 0.00 0.00 75 1006.2
20260904131650 83 200 0.0 5.0 0.00 0.00 0.00 75 1006.2
20260904131518 83 206 1.0 5.0 0.00 0.00 0.00 75 1006.2
20260904131140 82 256 2.0 6.0 0.00 0.00 0.00 76 1006.2
20260904131019 82 175 2.0 7.0 0.00 0.00 0.00 76 1006.2
20260904130630 83 209 3.0 7.0 0.00 0.00 0.00 76 1006.1
20260904130519 83 252 3.0 5.0 0.00 0.00 0.00 76 1006.1
20260904130120 83 210 2.0 5.0 0.00 0.00 0.00 76 1006.0
20260904130019 83 165 2.0 5.0 0.00 0.00 0.00 76 1006.0
20260904125610 83 79 2.0 6.0 0.00 0.00 0.00 76 1006.0
20260904125519 83 245 4.0 6.0 0.00 0.00 0.00 76 1006.0
20260904125100 83 201 3.0 5.0 0.00 0.00 0.00 76 1005.9
20260904125019 83 260 2.0 5.0 0.00 0.00 0.00 76 1006.0
20260904124550 83 293 0.0 5.0 0.00 0.00 0.00 76 1005.9
20260904124519 83 159 0.0 5.0 0.00 0.00 0.00 76 1005.9
20260904124040 83 360 1.0 3.0 0.00 0.00 0.00 76 1005.8
20260904124018 83 336 1.0 3.0 0.00 0.00 0.00 76 1005.8
20260904123530 83 263 2.0 4.0 0.00 0.00 0.00 76 1005.8
20260904123519 83 309 2.0 4.0 0.00 0.00 0.00 76 1005.8
20260904123020 83 86 2.0 5.0 0.00 0.00 0.00 76 1005.7
20260904123018 83 82 2.0 5.0 0.00 0.00 0.00 76 1005.7
20260904122518 83 290 2.0 5.0 0.00 0.00 0.00 76 1005.6
20260904122510 83 265 2.0 5.0 0.00 0.00 0.00 76 1005.6
20260904122019 83 274 2.0 6.0 0.00 0.00 0.00 76 1005.5
20260904122000 83 315 2.0 6.0 0.00 0.00 0.00 76 1005.5
20260904121519 83 28 1.0 7.0 0.00 0.00 0.00 75 1005.4
20260904121449 83 258 1.0 7.0 0.00 0.00 0.00 75 1005.4
20260904121018 83 322 1.0 4.0 0.00 0.00 0.00 76 1005.4
20260904120518 83 315 2.0 4.0 0.00 0.00 0.00 75 1005.4
20260904120430 83 64 1.0 4.0 0.00 0.00 0.00 75 1005.3
20260904120019 83 226 2.0 4.0 0.00 0.00 0.00 75 1005.3
20260904115920 83 256 2.0 4.0 0.00 0.00 0.00 75 1005.3
20260904115518 83 301 1.0 4.0 0.00 0.00 0.00 75 1005.3
20260904115409 83 344 0.0 4.0 0.00 0.00 0.00 75 1005.3
20260904115018 83 36 0.0 5.0 0.00 0.00 0.00 75 1005.3
20260904114900 83 17 1.0 5.0 0.00 0.00 0.00 75 1005.2
20260904114518 83 328 1.0 3.0 0.00 0.00 0.00 75 1005.2
20260904114350 83 286 0.0 5.0 0.00 0.00 0.00 75 1005.2
20260904114020 83 305 2.0 5.0 0.00 0.00 0.00 75 1005.2
20260904113839 83 267 3.0 4.0 0.00 0.00 0.00 75 1005.0
20260904113518 83 238 1.0 3.0 0.00 0.00 0.00 75 1005.0
20260904113329 83 324 1.0 3.0 0.00 0.00 0.00 75 1004.9
20260904113018 83 332 1.0 7.0 0.00 0.00 0.00 75 1005.0
20260904112820 83 294 1.0 7.0 0.00 0.00 0.00 75 1004.9
20260904112518 83 202 2.0 5.0 0.00 0.00 0.00 75 1004.9
20260904112309 83 301 1.0 5.0 0.00 0.00 0.00 75 1004.9
20260904112018 83 272 2.0 8.0 0.00 0.00 0.00 75 1004.9
20260904111759 83 292 5.0 8.0 0.00 0.00 0.00 75 1005.0
20260904111518 83 249 1.0 5.0 0.00 0.00 0.00 75 1004.9
20260904111250 83 344 1.0 3.0 0.00 0.00 0.00 75 1004.9
20260904111018 83 274 1.0 6.0 0.00 0.00 0.00 75 1004.9
20260904110739 83 294 3.0 6.0 0.00 0.00 0.00 75 1004.9
20260904110518 83 336 2.0 6.0 0.00 0.00 0.00 75 1004.8
20260904110229 84 7 2.0 7.0 0.00 0.00 0.00 75 1004.7
20260904105719 84 250 3.0 8.0 0.00 0.00 0.00 74 1004.7
20260904105517 84 301 1.0 4.0 0.00 0.00 0.00 74 1004.7
20260904105209 84 4 1.0 3.0 0.00 0.00 0.00 74 1004.6
20260904105018 84 264 1.0 4.0 0.00 0.00 0.00 74 1004.6
20260904104518 84 213 1.0 7.0 0.00 0.00 0.00 74 1004.7